Location: Casone le Fosse
(44.6547°N, 12.1103°E)
Time: 04:12:01
(UTC+00:00)

Cosmos 967 Rocket - Pass Details

Date: 29 October 2020
Orbit: 953 x 984 km, 65.8° (Epoch: 01 December)

Event Time Altitude Azimuth Distance (km) Brightness Sun altitude
Rises 18:27:50 0° 203° (SSW) 3,673 7.7 -26.0°
Reaches altitude 10° 18:30:24 10° 201° (SSW) 2,726 7.0 -26.5°
Enters shadow 18:36:29 69° 136° (SE) 1,041 4.4 -27.6°
